CST,Max TemperatureF,Mean TemperatureF,Min TemperatureF,Max Dew PointF,MeanDew PointF,Min DewpointF,Max Humidity, Mean Humidity, Min Humidity, Max Sea Level PressureIn, Mean Sea Level PressureIn, Min Sea Level PressureIn, Max VisibilityMiles, Mean VisibilityMiles, Min VisibilityMiles, Max Wind SpeedMPH, Mean Wind SpeedMPH, Max Gust SpeedMPH,PrecipitationIn, CloudCover, Events, WindDirDegrees
2013-2-1,55,36,17,27,20,14,100,64,20,30.25,30.14,30.02,10,10,7,14,8,17,0.00,0,,180
2013-2-2,53,40,26,28,21,16,86,54,26,30.36,30.29,30.15,10,10,10,15,10,18,0.00,0,,298
2013-2-3,59,44,30,28,22,19,64,43,23,30.30,30.07,29.82,10,10,10,31,14,37,0.00,0,,210
2013-2-4,55,44,32,27,19,14,60,41,23,30.01,29.93,29.81,10,10,10,21,12,30,0.00,0,,343
2013-2-5,59,42,26,23,19,14,69,43,22,30.02,29.96,29.89,10,10,10,26,11,33,0.00,0,,89
2013-2-6,69,50,30,37,27,19,100,56,16,29.99,29.84,29.72,10,8,0,26,12,34,0.00,2,Fog-Snow,195
2013-2-7,51,42,30,27,23,19,69,46,32,30.22,30.06,29.78,10,10,7,31,20,39,0.00,0,,3
2013-2-8,51,36,21,25,18,14,80,50,24,30.22,30.12,29.97,10,10,10,22,12,30,0.00,0,,173
2013-2-9,64,48,32,36,18,5,55,37,10,29.96,29.71,29.47,10,9,2,38,17,50,0.00,2,,186
2013-2-10,48,39,30,21,14,9,51,38,25,30.03,29.79,29.60,10,10,10,36,20,41,0.00,0,,322
2013-2-11,41,28,14,30,17,9,100,60,42,30.16,30.07,30.00,10,10,1,14,7,26,0.00,0,Snow,69
2013-2-12,32,24,17,30,26,14,100,92,69,30.06,30.01,29.96,10,6,0,15,6,,0.09,5,Snow,9
2013-2-13,39,26,14,28,18,9,93,70,60,30.05,30.00,29.95,10,10,10,15,10,,0.00,0,,247
2013-2-14,41,32,23,32,26,16,93,78,69,30.30,30.09,29.99,10,10,10,21,9,29,0.00,1,,2
2013-2-15,42,34,26,28,23,19,87,66,42,30.37,30.31,30.22,10,10,7,16,9,26,0.00,2,,341
2013-2-16,57,40,23,25,20,18,86,55,21,30.36,30.19,30.02,10,10,10,24,10,29,0.00,0,,232
2013-2-17,66,46,26,27,17,9,80,39,12,30.01,29.79,29.60,10,10,10,23,10,28,0.00,0,,227
2013-2-18,46,39,32,21,15,10,64,39,23,30.11,29.91,29.60,10,10,10,37,17,44,0.00,0,,336
2013-2-19,53,37,21,21,16,10,69,43,24,30.18,30.08,29.93,10,10,10,24,10,32,0.00,1,,155
2013-2-20,39,36,32,37,33,21,100,95,49,29.93,29.79,29.64,10,5,0,25,16,34,0.09,8,Fog-Rain-Snow,143
2013-2-21,32,22,12,32,23,10,100,91,80,29.93,29.70,29.54,10,6,0,28,15,32,0.21,7,Fog-Snow,30
2013-2-22,32,19,6,23,16,3,93,78,60,30.02,29.97,29.91,10,10,7,17,7,,0.00,4,,186
2013-2-23,50,38,26,32,28,23,93,79,40,29.98,29.84,29.69,10,10,5,14,7,,0.00,3,,170
2013-2-24,42,35,28,32,27,21,100,80,53,29.82,29.70,29.62,10,8,1,31,13,38,0.00,4,Snow,1
2013-2-25,33,28,23,28,25,19,100,89,69,29.90,29.82,29.71,,,,43,31,53,0.00,5,,353
2013-2-26,35,26,17,28,22,14,93,83,65,29.95,29.83,29.74,10,10,10,15,9,17,0.00,0,,317
2013-2-27,41,34,26,30,24,19,93,73,45,30.25,30.16,29.95,10,10,7,25,15,32,0.00,2,Snow,333
2013-2-28,46,34,21,23,19,14,80,60,27,30.30,30.24,30.19,10,10,10,14,8,18,0.00,0,,300